Terminal Aerodrome Forecast
Issued by NWS Amarillo, TX

Home | Current Version | Previous Version | Text Only | Print | Product List | Glossary On
Versions: 1 2 3 4 5 6 7 8 9 10 11 12 13 14 15 16 17 18 19 20
651
FTUS44 KAMA 290523
TAFGUY
TAF
KGUY 290523Z 2906/3006 02019KT 5SM BR OVC006
      TEMPO 2906/2910 2SM -SHRA BR OVC003
     FM291000 02025G35KT 2SM -SHRA BR OVC006
      TEMPO 2910/2914 1SM -SHRA BR OVC002
     FM291600 36028G38KT 1SM -SHRA OVC004
     FM292000 35025G35KT P6SM -SHRA SCT005 OVC040=

USA.gov is the U.S. government's official web portal to all federal, state and local government web resources and services.